Flag for U.S.A. Weather past 2 weeks in Charlotte, North Carolina, U.S.A.

Now
45 °F

Overcast.


Feels Like: 44 °F
Forecast: 38 / 50 °F
Wind: 3 mph from South

Location: Charlotte / Douglas International Airport

Current Time: Dec 20, 2014 at 3:53:30 PM

Latest Report: Dec 20, 2014 at 2:52 PM


Visibility: 10 mi

Pressure: 30.21 "Hg

Humidity: 65%

Dew point: 34 °F

Location of CharlotteLocation

Historic Weather in Charlotte — Graph

°F

Charlotte temperature yesterday

Maximum temperature yesterday: 56 °F (at 1:52 PM)
Minimum temperature yesterday: 33 °F (at 6:52 AM)
Average temperature yesterday: 46 °F

Past Weeks' High & Low Weather Summary

 TemperatureHumidityPressure
High65 °F (Dec 13, 2:52 PM)93% (Dec 6, 2:52 PM)30.43 "Hg (Dec 6, 2:52 PM)
Low26 °F (Dec 11, 5:52 AM)11% (Dec 13, 2:52 PM)29.87 "Hg (Dec 16, 2:52 PM)
Average45 °F58%30.14 "Hg
* Reported Dec 5 1:52 PM — Dec 20 1:52 PM, Charlotte, Weather by CustomWeather, © 2014

Note: Actual official high and low records may vary slightly from our data, if they occured in-between our weather recording intervals... More about our weather records

Advertising

Charlotte weather history for previous 24 hours

 ConditionsComfort  
Time TempWeatherWind HumidityBarometerVisibility
1:52 PM
Dec 20
46 °FOvercast.No wind61%30.21 "Hg10 mi
12:52 PM45 °FOvercast.5 mph63%30.22 "Hg10 mi
11:52 AM44 °FOvercast.No wind65%30.25 "Hg10 mi
10:52 AM44 °FOvercast.3 mph68%30.26 "Hg10 mi
9:52 AM41 °FLight rain. Overcast.6 mph74%30.26 "Hg10 mi
8:52 AM40 °FLight rain. Mostly cloudy.5 mph80%30.24 "Hg10 mi
7:52 AM40 °FLight rain. Overcast.3 mph77%30.25 "Hg10 mi
6:52 AM41 °FLight rain. Overcast.5 mph74%30.22 "Hg10 mi
5:52 AM41 °FLight rain. Overcast.3 mph74%30.20 "Hg10 mi
4:52 AM44 °FLight rain. Overcast.6 mph53%30.18 "Hg10 mi
3:52 AM45 °FOvercast.7 mph48%30.18 "Hg10 mi
2:52 AM46 °FOvercast.3 mph44%30.19 "Hg10 mi
1:52 AM46 °FOvercast.6 mph44%30.17 "Hg10 mi
12:52 AM47 °FOvercast.5 mph42%30.18 "Hg10 mi
11:52 PM
Dec 19
48 °FOvercast.7 mph41%30.18 "Hg10 mi
10:52 PM48 °FMostly cloudy.5 mph43%30.16 "Hg10 mi
9:52 PM48 °FPartly cloudy.5 mph44%30.16 "Hg10 mi
8:52 PM50 °FOvercast.6 mph43%30.16 "Hg10 mi
7:52 PM49 °FOvercast.3 mph46%30.16 "Hg10 mi
6:52 PM52 °FMostly cloudy.No wind40%30.14 "Hg10 mi
5:52 PM51 °FPassing clouds.No wind41%30.13 "Hg10 mi
4:52 PM53 °FPartly sunny.No wind39%30.13 "Hg10 mi
3:52 PM54 °FMostly cloudy.No wind35%30.12 "Hg10 mi
Weather by CustomWeather, © 2014

See weather overviewHow to use our weather pages